Wind_Speed
11 12 12 11 11 11 11 10 10 10 10 10 10 10 10 10 11 11 11 11 12 12 12 12 12 12 13 13 14 14 15 15 16 17 17 18 18 18 19 19 20 20 20
10 10 10 10 10 10 9 10 10 10 10 10 11 11 11 11 11 11 11 11 11 11 12 12 12 12 13 13 13 14 14 15 15 16 16 17 18 19 19 20 21 21 22
8 8 8 8 9 9 9 10 10 11 11 11 11 11 11 11 11 11 11 11 11 11 11 12 12 12 12 13 13 14 14 15 16 16 17 17 18 18 19 20 21 22 23
8 8 8 9 9 10 10 11 11 11 12 12 12 12 12 12 11 11 11 11 11 11 11 11 11 11 12 12 13 14 14 15 16 17 18 18 19 20 20 21 22 22 23
8 9 9 10 11 11 12 12 12 12 12 12 12 12 12 12 11 11 10 10 10 10 11 11 11 12 12 13 14 14 15 15 16 17 18 19 19 20 22 22 23 24 25
9 10 11 12 12 13 13 13 13 13 13 13 13 13 12 12 11 11 10 10 10 10 11 11 12 12 13 13 14 14 15 16 16 17 18 19 20 21 22 23 24 25 26
12 12 13 14 14 14 14 14 14 14 14 14 14 13 13 12 12 12 11 11 11 12 12 12 13 13 14 14 14 15 16 16 17 18 19 20 20 21 22 23 24 25 26
13 14 14 15 15 16 16 16 16 16 15 15 15 14 14 13 13 13 13 13 13 13 14 14 14 14 14 15 15 16 16 17 18 19 20 21 21 22 23 24 25 26 27
15 15 16 16 17 17 17 17 17 17 17 17 16 16 15 15 15 14 14 15 15 15 15 15 15 15 16 16 16 17 17 18 18 19 20 21 22 22 23 24 25 26 27
17 17 17 18 18 18 18 19 19 19 19 18 18 17 17 17 16 16 17 17 17 17 17 17 17 17 18 18 18 19 19 19 20 20 21 22 22 23 24 25 25 26 27
17 18 18 19 19 20 20 20 20 20 20 20 19 19 19 19 19 19 19 19 19 19 19 20 20 20 21 21 22 22 22 23 23 24 24 24 25 25 26 26 27 28 29
18 18 19 20 20 20 21 21 21 21 21 21 21 21 22 22 22 22 22 22 22 22 23 23 23 24 24 25 25 26 26 26 27 27 27 28 28 29 29 30 30 31 32
19 20 20 20 21 21 22 22 22 23 23 23 24 24 24 24 25 25 25 26 26 26 27 27 27 28 28 29 29 30 30 30 31 31 31 31 32 32 33 33 34 35 35
20 21 21 21 22 22 23 24 24 25 25 26 26 26 27 27 28 29 29 29 30 31 31 32 32 32 33 33 34 34 35 35 35 35 35 36 36 36 37 37 38 38 39
21 22 23 23 23 24 25 26 26 27 28 28 29 30 30 31 32 32 33 34 34 35 36 36 36 37 37 38 38 39 39 39 40 40 40 40 40 41 41 41 42 42 43
22 23 23 24 25 25 26 27 28 29 30 31 32 32 33 34 35 36 37 37 39 40 40 41 41 41 42 42 43 44 44 44 44 44 44 44 44 45 45 45 46 46 46
22 23 24 25 25 26 27 29 30 31 31 32 34 35 36 37 38 39 40 41 42 44 44 45 45 46 46 47 48 48 48 48 48 48 48 48 48 49 49 49 49 50 50
22 23 24 25 26 27 28 29 30 31 32 34 35 36 37 39 40 41 42 44 46 46 47 47 48 49 50 51 51 52 52 52 51 52 52 51 52 52 52 53 53 53 53
23 23 24 25 26 27 28 29 30 32 33 35 36 37 39 40 42 43 44 45 47 48 49 50 50 51 52 53 54 55 55 54 54 55 54 54 55 55 55 56 56 56 56
24 25 26 26 27 28 29 30 31 32 34 35 37 38 40 41 43 44 45 46 48 49 50 52 52 53 54 55 56 56 56 57 57 57 56 57 57 58 58 58 59 58 58
26 27 27 28 28 29 30 30 31 32 33 35 37 38 40 42 43 45 46 47 49 50 52 53 54 55 56 57 58 58 58 59 59 58 59 59 59 60 60 61 61 61 61
27 28 28 29 29 29 30 30 31 32 33 35 37 38 40 42 44 45 47 48 50 51 53 54 56 57 58 59 61 62 61 60 60 61 62 62 62 62 63 63 63 64 64
29 30 30 30 31 31 31 31 32 33 34 36 38 39 41 42 44 45 47 49 50 52 53 55 57 59 60 61 63 64 65 63 62 63 64 64 65 65 65 65 66 66 67
30 31 31 31 31 31 32 32 33 34 35 37 38 40 41 43 44 46 47 49 51 52 54 56 58 60 62 63 64 66 67 67 67 65 64 65 66 67 67 67 68 69 69
30 30 30 30 30 30 31 32 33 34 35 37 38 40 41 43 45 47 49 51 53 55 56 58 60 62 64 65 67 68 69 70 71 71 68 67 68 68 69 70 70 71 71
30 30 30 29 29 30 31 32 34 35 36 38 40 41 43 45 47 49 51 53 55 57 59 61 63 65 67 68 69 71 71 72 73 74 73 71 71 70 71 71 72 72 72
Wind_Direction
250 252 251 249 248 249 249 251 254 256 258 260 261 262 263 265 267 268 269 270 270 269 268 267 266 265 264 263 262 262 261 261 260 258 257 257 256 256 255 256 256 256 255
250 249 247 246 247 249 251 253 256 258 259 260 262 264 266 267 268 269 270 270 271 271 271 270 269 267 266 264 264 263 262 262 262 261 260 259 257 256 256 256 257 257 258
245 246 249 250 251 253 256 258 261 263 263 262 264 266 267 269 270 270 270 271 271 271 271 271 271 270 268 266 265 264 263 263 263 263 263 262 260 259 259 259 259 259 259
245 250 253 255 257 259 262 264 265 266 265 266 268 269 271 272 271 270 270 270 270 270 271 271 272 272 272 271 269 269 268 267 267 267 266 265 264 263 263 263 262 261 261
250 255 258 261 264 266 267 267 268 268 268 270 272 272 273 273 271 271 270 268 267 269 270 271 272 273 274 274 274 273 272 272 272 271 271 270 269 267 266 266 265 265 264
256 259 262 265 268 269 269 269 269 268 270 271 273 273 274 273 271 270 269 269 269 271 271 272 273 274 274 275 275 274 274 274 274 274 273 273 273 272 271 270 268 267 266
261 263 265 267 269 270 270 270 270 270 270 271 271 272 272 272 270 270 269 270 271 272 272 273 274 274 275 276 276 276 275 275 275 275 274 274 274 273 273 272 271 270 269
265 267 268 269 270 270 270 270 270 270 270 270 270 269 270 270 269 269 269 270 272 273 274 275 275 275 277 277 278 278 278 278 278 277 276 276 275 275 274 274 273 272 272
267 268 269 270 270 270 269 270 270 270 270 269 269 268 269 269 268 268 268 270 272 273 273 274 275 277 278 279 279 280 280 280 280 280 280 279 278 277 277 276 275 275 274
268 268 269 270 270 270 270 270 270 269 269 269 268 267 267 267 268 268 268 269 270 271 271 273 274 276 278 279 280 281 281 281 281 282 282 281 281 280 280 279 278 278 276
270 270 270 270 270 270 269 269 269 268 268 267 266 265 265 266 267 268 268 269 270 270 271 273 274 276 278 279 280 280 281 281 281 282 282 282 282 282 281 281 281 280 279
273 272 270 270 270 270 269 268 268 267 267 266 265 265 265 266 267 268 268 269 269 271 272 273 274 276 277 279 280 280 281 281 281 282 282 282 282 282 282 282 282 282 281
273 272 271 271 271 270 268 268 267 267 266 265 265 265 265 266 267 268 269 269 270 271 272 273 274 276 277 278 279 280 281 281 282 282 282 282 282 283 283 283 283 283 282
273 273 273 273 272 270 269 267 266 266 266 266 266 266 266 266 267 268 269 270 270 271 272 273 274 276 277 278 279 280 281 281 282 282 282 283 283 283 283 283 284 284 283
276 275 275 274 272 271 270 268 267 266 267 267 267 267 266 267 268 268 269 270 270 271 272 274 275 275 276 278 279 280 281 282 282 283 283 283 283 284 284 284 284 284 284
279 278 276 275 274 273 271 270 270 269 270 270 269 269 269 269 269 270 270 270 271 271 272 274 275 276 277 278 279 280 281 282 282 283 283 284 284 285 284 284 285 285 285
280 279 278 278 277 276 274 273 273 272 272 272 272 272 271 271 271 271 272 272 272 273 274 275 275 276 277 278 279 280 281 282 282 283 283 284 285 285 285 285 285 285 285
282 281 280 279 278 278 278 277 277 276 275 274 274 274 273 273 273 274 274 274 274 275 276 276 276 277 277 278 279 280 280 281 282 282 283 284 284 284 284 285 285 285 285
286 284 282 281 280 280 280 280 279 279 278 278 277 277 276 276 276 277 277 277 277 278 278 278 278 278 278 278 278 279 280 281 281 281 282 283 283 284 284 284 284 284 284
288 286 285 283 283 283 282 282 282 281 281 280 280 280 279 279 279 279 279 279 279 279 279 279 279 279 279 279 279 280 281 281 281 281 282 282 282 283 283 283 283 283 283
289 288 287 286 285 285 284 284 284 283 283 283 283 283 283 283 282 282 282 281 281 281 281 281 282 281 281 280 281 281 280 280 281 281 281 281 281 281 281 282 282 282 282
290 289 288 287 287 287 287 287 287 286 286 285 285 285 285 285 285 285 285 284 284 283 283 283 283 282 282 282 282 281 281 280 281 280 279 279 279 280 280 280 280 281 281
290 290 290 290 290 290 290 290 289 288 288 287 287 287 287 287 287 287 287 286 286 285 285 284 284 284 283 282 282 282 282 282 280 278 279 279 278 278 278 278 279 279 279
289 289 290 291 292 292 292 292 291 291 290 290 289 289 288 288 288 288 287 287 287 287 286 286 285 284 284 283 282 282 283 282 281 279 277 277 277 277 276 276 276 276 277
289 290 292 293 294 294 294 294 293 293 293 293 292 291 291 290 290 289 289 288 288 287 287 286 285 285 284 284 283 283 282 282 281 281 279 277 275 274 274 274 274 274 275
290 291 293 294 295 296 296 296 296 295 295 295 294 294 294 293 293 292 291 291 290 289 288 287 286 285 284 283 283 282 281 281 280 280 279 278 276 274 273 273 273 273 273
Height
5871 5871 5871 5872 5872 5872 5873 5873 5873 5873 5873 5873 5873 5873 5873 5873 5873 5873 5873 5873 5873 5873 5873 5874 5874 5874 5874 5874 5875 5875 5875 5875 5876 5876 5877 5877 5878 5878 5879 5879 5880 5880 5881
5870 5870 5870 5870 5870 5871 5871 5871 5871 5871 5871 5871 5871 5871 5871 5871 5871 5870 5870 5870 5870 5870 5871 5871 5871 5871 5871 5872 5872 5872 5872 5872 5873 5873 5873 5874 5874 5875 5875 5876 5876 5877 5877
5868 5868 5869 5869 5869 5869 5869 5869 5869 5869 5869 5869 5869 5868 5868 5868 5868 5868 5868 5868 5868 5868 5868 5868 5868 5868 5868 5869 5869 5869 5869 5870 5870 5870 5870 5871 5871 5871 5872 5872 5873 5873 5874
5866 5867 5867 5867 5867 5867 5867 5867 5867 5867 5867 5866 5866 5866 5866 5865 5865 5865 5865 5865 5865 5865 5865 5865 5865 5865 5866 5866 5866 5866 5866 5866 5866 5867 5867 5867 5867 5868 5868 5868 5869 5869 5870
5865 5865 5865 5865 5865 5865 5865 5865 5865 5865 5864 5864 5864 5863 5863 5863 5862 5862 5862 5862 5862 5862 5862 5862 5863 5863 5863 5863 5863 5863 5863 5863 5863 5863 5863 5863 5863 5863 5864 5864 5864 5865 5865
5863 5863 5863 5863 5863 5863 5863 5863 5862 5862 5862 5861 5861 5861 5860 5860 5860 5860 5860 5860 5860 5860 5860 5860 5860 5860 5860 5860 5860 5860 5859 5859 5859 5859 5859 5859 5859 5859 5859 5859 5860 5860 5860
5861 5861 5861 5861 5860 5860 5860 5860 5860 5859 5859 5859 5858 5858 5858 5857 5857 5857 5857 5857 5857 5857 5857 5857 5857 5857 5857 5857 5856 5856 5856 5856 5856 5855 5855 5855 5855 5855 5855 5855 5855 5855 5855
5858 5858 5858 5858 5857 5857 5857 5857 5857 5856 5856 5856 5855 5855 5855 5854 5854 5854 5854 5854 5854 5854 5854 5853 5853 5853 5853 5853 5853 5853 5852 5852 5852 5852 5851 5851 5851 5850 5850 5850 5850 5849 5849
5855 5855 5855 5855 5855 5854 5854 5854 5854 5853 5853 5852 5852 5852 5851 5851 5851 5851 5850 5850 5850 5850 5850 5850 5850 5850 5849 5849 5849 5849 5848 5848 5848 5847 5847 5846 5846 5845 5845 5845 5844 5844 5844
5852 5852 5852 5851 5851 5851 5851 5850 5850 5850 5849 5849 5848 5848 5848 5848 5847 5847 5847 5847 5847 5847 5846 5846 5846 5846 5845 5845 5845 5844 5844 5844 5843 5843 5842 5841 5841 5840 5840 5839 5839 5838 5838
5849 5848 5848 5848 5847 5847 5847 5846 5846 5846 5845 5845 5844 5844 5844 5844 5844 5843 5843 5843 5843 5842 5842 5842 5842 5841 5841 5840 5840 5840 5839 5838 5838 5837 5837 5836 5835 5835 5834 5833 5833 5832 5832
5845 5844 5844 5843 5843 5843 5842 5842 5842 5841 5841 5841 5840 5840 5840 5840 5839 5839 5838 5838 5838 5838 5837 5837 5837 5836 5836 5835 5834 5834 5833 5833 5832 5831 5830 5830 5829 5828 5827 5827 5826 5825 5825
5840 5840 5839 5839 5839 5838 5838 5837 5837 5836 5836 5836 5835 5835 5835 5835 5834 5834 5833 5833 5833 5832 5832 5831 5831 5830 5830 5829 5828 5827 5827 5826 5825 5824 5824 5823 5822 5821 5820 5819 5818 5817 5817
5836 5835 5835 5835 5834 5834 5833 5832 5832 5831 5831 5830 5830 5830 5829 5829 5828 5828 5828 5827 5826 5826 5825 5825 5824 5824 5823 5822 5821 5820 5819 5819 5818 5817 5816 5815 5814 5813 5812 5811 5810 5809 5808
5832 5831 5830 5829 5829 5828 5828 5827 5826 5826 5825 5825 5824 5823 5823 5822 5822 5821 5821 5820 5819 5819 5818 5817 5817 5816 5815 5814 5813 5812 5811 5810 5809 5808 5807 5806 5805 5804 5803 5802 5800 5799 5798
5828 5826 5825 5824 5824 5823 5822 5821 5821 5820 5819 5819 5818 5817 5816 5816 5815 5814 5813 5813 5812 5811 5810 5809 5809 5808 5807 5806 5804 5803 5802 5801 5800 5799 5798 5797 5796 5794 5793 5791 5790 5789 5788
5823 5822 5820 5819 5818 5817 5816 5816 5815 5814 5813 5812 5811 5810 5809 5808 5807 5806 5805 5804 5803 5802 5801 5800 5799 5798 5797 5796 5795 5793 5792 5791 5790 5789 5787 5786 5785 5783 5782 5780 5779 5778 5777
5818 5817 5815 5814 5813 5812 5811 5810 5809 5807 5806 5805 5804 5802 5801 5800 5799 5797 5797 5795 5793 5792 5792 5791 5789 5788 5787 5785 5784 5782 5781 5780 5779 5777 5776 5775 5773 5772 5770 5768 5767 5765 5764
5813 5812 5810 5809 5807 5806 5805 5803 5802 5801 5799 5797 5796 5794 5793 5791 5790 5789 5788 5786 5784 5782 5781 5780 5779 5777 5776 5774 5772 5770 5769 5768 5767 5765 5764 5762 5760 5759 5757 5755 5754 5752 5751
5808 5807 5805 5803 5802 5800 5799 5797 5796 5794 5792 5790 5788 5786 5784 5783 5781 5779 5778 5776 5774 5772 5770 5768 5767 5765 5764 5761 5759 5758 5757 5755 5753 5752 5751 5749 5747 5745 5743 5741 5740 5739 5737
5803 5801 5799 5797 5796 5794 5792 5791 5789 5787 5785 5782 5780 5778 5776 5773 5771 5770 5768 5766 5763 5761 5759 5757 5754 5752 5751 5747 5745 5745 5743 5741 5740 5739 5737 5735 5733 5731 5729 5727 5725 5724 5722
5797 5795 5793 5791 5789 5788 5786 5784 5782 5780 5777 5775 5772 5770 5767 5764 5762 5760 5757 5755 5752 5750 5747 5745 5741 5739 5737 5733 5730 5728 5728 5729 5726 5724 5721 5719 5718 5715 5714 5711 5710 5708 5707
5791 5789 5787 5784 5783 5781 5779 5777 5774 5772 5770 5767 5764 5761 5758 5755 5753 5749 5747 5743 5740 5737 5735 5732 5728 5725 5722 5719 5715 5711 5709 5711 5711 5709 5706 5703 5701 5699 5698 5695 5693 5692 5690
5785 5783 5780 5778 5776 5774 5771 5769 5766 5764 5761 5759 5756 5753 5749 5746 5743 5739 5736 5732 5729 5725 5722 5718 5714 5710 5706 5703 5699 5695 5692 5690 5688 5689 5691 5688 5685 5682 5680 5678 5676 5674 5672
5778 5776 5774 5772 5769 5767 5764 5761 5759 5756 5753 5750 5747 5743 5740 5736 5732 5729 5725 5721 5717 5713 5709 5705 5700 5695 5691 5687 5683 5679 5675 5672 5668 5666 5669 5670 5667 5665 5662 5660 5658 5656 5654
5772 5770 5768 5765 5762 5759 5756 5753 5751 5748 5744 5741 5737 5734 5730 5726 5721 5717 5712 5708 5703 5699 5694 5689 5684 5679 5675 5670 5665 5661 5657 5653 5650 5645 5644 5647 5646 5646 5643 5641 5639 5638 5636